TimeCST,TemperatureF,Dew PointF,Humidity,Sea Level PressureIn,VisibilityMPH,Wind Direction,Wind SpeedMPH,Gust SpeedMPH,PrecipitationIn,Events,Conditions,WindDirDegrees,DateUTC
12:15 AM,32.4,23.5,70,30.49,10.0,Calm,Calm,-,N/A,,Clear,0,2013-11-29 06:15:00
12:35 AM,32.0,23.4,70,30.50,10.0,Calm,Calm,-,N/A,,Clear,0,2013-11-29 06:35:00
12:55 AM,31.3,23.2,72,30.50,10.0,Calm,Calm,-,N/A,,Clear,0,2013-11-29 06:55:00
1:15 AM,29.8,23.0,76,30.51,10.0,Calm,Calm,-,N/A,,Clear,0,2013-11-29 07:15:00
1:35 AM,29.3,22.6,76,30.51,10.0,Calm,Calm,-,N/A,,Clear,0,2013-11-29 07:35:00
1:55 AM,27.5,22.1,80,30.52,10.0,Calm,Calm,-,N/A,,Clear,0,2013-11-29 07:55:00
2:15 AM,25.9,21.4,83,30.52,10.0,Calm,Calm,-,N/A,,Clear,0,2013-11-29 08:15:00
2:35 AM,24.6,21.0,86,30.53,10.0,Calm,Calm,-,N/A,,Clear,0,2013-11-29 08:35:00
2:55 AM,24.8,21.6,87,30.53,10.0,Calm,Calm,-,N/A,,Clear,0,2013-11-29 08:55:00
3:15 AM,24.8,21.4,87,30.53,10.0,Calm,Calm,-,N/A,,Clear,0,2013-11-29 09:15:00
3:35 AM,24.6,21.0,86,30.53,10.0,Calm,Calm,-,N/A,,Clear,0,2013-11-29 09:35:00
3:55 AM,26.8,22.1,83,30.54,10.0,Calm,Calm,-,N/A,,Clear,0,2013-11-29 09:55:00
4:15 AM,26.2,21.0,81,30.55,10.0,Calm,Calm,-,N/A,,Clear,0,2013-11-29 10:15:00
4:35 AM,25.2,20.8,84,30.55,10.0,Calm,Calm,-,N/A,,Clear,0,2013-11-29 10:35:00
4:55 AM,23.4,20.1,87,30.55,10.0,Calm,Calm,-,N/A,,Clear,0,2013-11-29 10:55:00
5:15 AM,23.7,20.5,87,30.56,10.0,Calm,Calm,-,N/A,,Clear,0,2013-11-29 11:15:00
5:35 AM,24.1,21.2,89,30.56,10.0,Calm,Calm,-,N/A,,Clear,0,2013-11-29 11:35:00
5:55 AM,23.0,19.4,86,30.56,10.0,ENE,3.5,-,N/A,,Clear,60,2013-11-29 11:55:00
6:15 AM,24.3,20.3,85,30.57,10.0,Calm,Calm,-,N/A,,Clear,0,2013-11-29 12:15:00
6:35 AM,24.8,20.5,84,30.58,10.0,Calm,Calm,-,N/A,,Clear,0,2013-11-29 12:35:00
6:55 AM,24.6,20.7,85,30.58,10.0,Calm,Calm,-,N/A,,Clear,0,2013-11-29 12:55:00
7:15 AM,24.4,20.7,86,30.59,10.0,Calm,Calm,-,N/A,,Clear,0,2013-11-29 13:15:00
7:35 AM,26.6,21.9,82,30.59,10.0,East,3.5,-,N/A,,Clear,80,2013-11-29 13:35:00
7:55 AM,28.6,22.6,78,30.59,10.0,ENE,4.6,-,N/A,,Clear,70,2013-11-29 13:55:00
8:15 AM,30.6,23.5,75,30.60,10.0,ENE,5.8,-,N/A,,Clear,70,2013-11-29 14:15:00
8:35 AM,32.0,24.3,73,30.60,10.0,ENE,4.6,-,N/A,,Clear,70,2013-11-29 14:35:00
8:55 AM,33.8,24.8,70,30.60,10.0,East,4.6,-,N/A,,Clear,90,2013-11-29 14:55:00
9:15 AM,35.1,24.6,66,30.61,10.0,ESE,4.6,-,N/A,,Clear,110,2013-11-29 15:15:00
9:35 AM,36.7,25.0,63,30.60,10.0,East,4.6,-,N/A,,Clear,90,2013-11-29 15:35:00
9:55 AM,38.5,24.8,58,30.60,10.0,ESE,8.1,-,N/A,,Clear,120,2013-11-29 15:55:00
10:15 AM,39.7,25.0,56,30.59,10.0,ESE,4.6,-,N/A,,Clear,120,2013-11-29 16:15:00
10:35 AM,41.0,25.2,53,30.58,10.0,East,5.8,-,N/A,,Clear,100,2013-11-29 16:35:00
10:55 AM,41.7,25.2,52,30.58,10.0,ESE,5.8,-,N/A,,Clear,120,2013-11-29 16:55:00
11:15 AM,42.8,25.0,49,30.57,10.0,East,3.5,-,N/A,,Clear,100,2013-11-29 17:15:00
11:35 AM,43.7,24.4,47,30.56,10.0,ESE,3.5,-,N/A,,Clear,110,2013-11-29 17:35:00
11:55 AM,44.2,24.3,45,30.55,10.0,ESE,3.5,-,N/A,,Clear,110,2013-11-29 17:55:00
12:15 PM,44.8,24.6,45,30.55,10.0,Calm,Calm,-,N/A,,Clear,0,2013-11-29 18:15:00
12:35 PM,45.7,24.8,44,30.54,10.0,Calm,Calm,-,N/A,,Clear,0,2013-11-29 18:35:00
12:55 PM,46.6,25.3,43,30.53,10.0,SE,3.5,-,N/A,,Clear,130,2013-11-29 18:55:00
1:15 PM,46.8,25.3,43,30.52,10.0,SE,3.5,-,N/A,,Clear,130,2013-11-29 19:15:00
1:35 PM,47.1,25.5,43,30.51,10.0,Calm,Calm,-,N/A,,Clear,0,2013-11-29 19:35:00
1:55 PM,47.7,25.3,42,30.51,10.0,ESE,4.6,-,N/A,,Clear,120,2013-11-29 19:55:00
2:15 PM,48.2,25.7,42,30.50,10.0,ESE,4.6,-,N/A,,Clear,120,2013-11-29 20:15:00
2:35 PM,48.2,25.5,41,30.50,10.0,ESE,4.6,-,N/A,,Clear,120,2013-11-29 20:35:00
2:55 PM,48.0,25.7,42,30.50,10.0,East,4.6,-,N/A,,Clear,100,2013-11-29 20:55:00
3:15 PM,47.7,26.1,43,30.49,10.0,ESE,4.6,-,N/A,,Clear,120,2013-11-29 21:15:00
3:35 PM,46.9,26.4,45,30.49,10.0,SE,4.6,-,N/A,,Clear,140,2013-11-29 21:35:00
3:55 PM,45.5,26.8,48,30.49,10.0,SE,4.6,-,N/A,,Clear,140,2013-11-29 21:55:00
4:15 PM,44.6,26.6,49,30.49,10.0,Calm,Calm,-,N/A,,Clear,0,2013-11-29 22:15:00
4:35 PM,44.1,26.6,50,30.48,10.0,Calm,Calm,-,N/A,,Clear,0,2013-11-29 22:35:00
4:55 PM,42.8,26.6,53,30.48,10.0,Calm,Calm,-,N/A,,Clear,0,2013-11-29 22:55:00
5:15 PM,41.9,26.6,55,30.47,10.0,Calm,Calm,-,N/A,,Clear,0,2013-11-29 23:15:00
5:35 PM,39.9,26.8,59,30.47,10.0,East,3.5,-,N/A,,Clear,90,2013-11-29 23:35:00
5:55 PM,39.9,27.0,60,30.46,10.0,East,3.5,-,N/A,,Clear,90,2013-11-29 23:55:00
6:15 PM,39.2,27.0,62,30.45,10.0,Calm,Calm,-,N/A,,Clear,0,2013-11-30 00:15:00
6:35 PM,39.2,27.1,62,30.45,10.0,East,3.5,-,N/A,,Clear,100,2013-11-30 00:35:00
6:55 PM,38.7,27.1,63,30.45,10.0,ESE,3.5,-,N/A,,Clear,110,2013-11-30 00:55:00
7:15 PM,38.7,27.1,63,30.45,10.0,ESE,3.5,-,N/A,,Clear,110,2013-11-30 01:15:00
7:35 PM,38.3,27.1,64,30.45,10.0,East,3.5,-,N/A,,Clear,100,2013-11-30 01:35:00
7:55 PM,38.1,27.1,65,30.44,10.0,East,3.5,-,N/A,,Clear,100,2013-11-30 01:55:00
8:15 PM,37.9,27.3,66,30.44,10.0,ESE,3.5,-,N/A,,Clear,110,2013-11-30 02:15:00
8:35 PM,37.8,27.5,67,30.44,10.0,East,3.5,-,N/A,,Clear,100,2013-11-30 02:35:00
8:55 PM,37.4,27.3,67,30.45,10.0,Calm,Calm,-,N/A,,Clear,0,2013-11-30 02:55:00
9:15 PM,36.7,27.5,69,30.44,10.0,Calm,Calm,-,N/A,,Clear,0,2013-11-30 03:15:00
9:35 PM,36.3,27.3,70,30.44,10.0,Calm,Calm,-,N/A,,Clear,0,2013-11-30 03:35:00
9:55 PM,36.7,27.5,69,30.44,10.0,Calm,Calm,-,N/A,,Clear,0,2013-11-30 03:55:00
10:15 PM,35.6,26.8,70,30.43,10.0,SE,3.5,-,N/A,,Clear,130,2013-11-30 04:15:00
10:35 PM,35.4,27.5,73,30.43,10.0,ESE,3.5,-,N/A,,Clear,110,2013-11-30 04:35:00
10:55 PM,36.5,27.5,70,30.43,10.0,SE,4.6,-,N/A,,Clear,130,2013-11-30 04:55:00
11:15 PM,36.7,28.0,71,30.42,10.0,SE,4.6,-,N/A,,Clear,130,2013-11-30 05:15:00
11:35 PM,36.7,28.0,71,30.41,10.0,SE,4.6,-,N/A,,Clear,130,2013-11-30 05:35:00
11:55 PM,36.5,28.0,71,30.41,10.0,SE,3.5,-,N/A,,Clear,130,2013-11-30 05:55:00